TimeCET,TemperatureF,Dew PointF,Humidity,Sea Level PressureIn,VisibilityMPH,Wind Direction,Wind SpeedMPH,Gust SpeedMPH,PrecipitationIn,Events,Conditions,WindDirDegrees,DateUTC
6:00 AM,33.8,33.8,100,29.98,-9999.0,SSW,5.8,-,N/A,,Clear,210,2012-11-05 05:00:00
6:30 AM,33.8,33.8,100,29.98,-9999.0,WSW,9.2,-,N/A,,Clear,240,2012-11-05 05:30:00
7:00 AM,33.8,33.8,100,29.98,-9999.0,WSW,9.2,-,N/A,,Clear,240,2012-11-05 06:00:00
7:30 AM,35.6,35.6,100,30.01,-9999.0,WSW,9.2,-,N/A,,Clear,240,2012-11-05 06:30:00
8:00 AM,35.6,35.6,100,30.01,-9999.0,SW,9.2,-,N/A,,Clear,230,2012-11-05 07:00:00
8:30 AM,35.6,35.6,100,30.01,-9999.0,WSW,4.6,-,N/A,,Clear,240,2012-11-05 07:30:00
9:00 AM,37.4,37.4,100,30.04,-9999.0,WSW,11.5,-,N/A,,Clear,240,2012-11-05 08:00:00
9:30 AM,41.0,39.2,93,30.04,6.2,WSW,12.7,-,N/A,,Partly Cloudy,240,2012-11-05 08:30:00
10:00 AM,41.0,41.0,100,30.04,6.2,WSW,13.8,-,N/A,,Partly Cloudy,240,2012-11-05 09:00:00
10:30 AM,42.8,42.8,100,30.04,6.2,WSW,13.8,-,N/A,,Partly Cloudy,240,2012-11-05 09:30:00
11:00 AM,42.8,41.0,93,30.06,6.2,WSW,17.3,-,N/A,,Scattered Clouds,250,2012-11-05 10:00:00
11:30 AM,46.4,41.0,81,30.06,6.2,WSW,16.1,-,N/A,,Mostly Cloudy,250,2012-11-05 10:30:00
12:30 PM,48.2,42.8,82,30.06,6.2,West,16.1,-,N/A,,Mostly Cloudy,260,2012-11-05 11:30:00
1:00 PM,48.2,41.0,76,30.06,6.2,West,15.0,-,N/A,,Mostly Cloudy,260,2012-11-05 12:00:00
1:30 PM,46.4,41.0,81,30.04,6.2,West,12.7,-,N/A,,Mostly Cloudy,270,2012-11-05 12:30:00
2:00 PM,48.2,41.0,76,30.04,6.2,West,13.8,-,N/A,,Mostly Cloudy,260,2012-11-05 13:00:00
2:30 PM,50.0,39.2,66,30.04,6.2,West,13.8,-,N/A,,Mostly Cloudy,260,2012-11-05 13:30:00
3:00 PM,51.8,39.2,62,30.04,6.2,WSW,13.8,-,N/A,,Mostly Cloudy,250,2012-11-05 14:00:00
3:30 PM,51.8,39.2,62,30.04,6.2,West,12.7,-,N/A,,Scattered Clouds,260,2012-11-05 14:30:00
4:00 PM,50.0,37.4,62,30.04,6.2,WSW,12.7,-,N/A,,Scattered Clouds,250,2012-11-05 15:00:00
4:30 PM,50.0,39.2,66,30.04,6.2,West,12.7,-,N/A,,Scattered Clouds,260,2012-11-05 15:30:00
5:00 PM,48.2,39.2,71,30.04,6.2,WSW,10.4,-,N/A,,Scattered Clouds,250,2012-11-05 16:00:00
5:30 PM,48.2,39.2,71,30.04,6.2,SW,8.1,-,N/A,,Partly Cloudy,230,2012-11-05 16:30:00
6:00 PM,46.4,39.2,76,30.06,-9999.0,SW,8.1,-,N/A,,Clear,220,2012-11-05 17:00:00
6:30 PM,42.8,39.2,87,30.06,6.2,SW,6.9,-,N/A,,Partly Cloudy,220,2012-11-05 17:30:00
7:00 PM,42.8,39.2,87,30.06,-9999.0,SW,9.2,-,N/A,,Clear,230,2012-11-05 18:00:00
7:30 PM,42.8,39.2,87,30.09,-9999.0,SW,8.1,-,N/A,,Clear,220,2012-11-05 18:30:00
8:00 PM,41.0,37.4,87,30.09,-9999.0,SW,8.1,-,N/A,,Clear,230,2012-11-05 19:00:00
8:30 PM,39.2,37.4,93,30.09,-9999.0,WSW,6.9,-,N/A,,Clear,250,2012-11-05 19:30:00
9:00 PM,39.2,37.4,93,30.09,-9999.0,WSW,6.9,-,N/A,,Clear,250,2012-11-05 20:00:00
9:30 PM,39.2,37.4,93,30.09,-9999.0,WSW,6.9,-,N/A,,Clear,250,2012-11-05 20:30:00
10:00 PM,42.8,39.2,87,30.09,-9999.0,West,6.9,-,N/A,,Clear,270,2012-11-05 21:00:00
10:30 PM,41.0,39.2,93,30.09,-9999.0,West,5.8,-,N/A,,Clear,270,2012-11-05 21:30:00